Regional Weather Roundup
Issued by NWS

Home | Current Version | Previous Version | Text Only | Print | Product List | Glossary On
Versions: 1 2 3 4 5 6 7 8 9 10 11 12 13 14 15 16 17 18 19 20 21 22 23 24 25 26 27 28 29 30 31 32 33 34 35 36 37 38 39 40 41 42 43 44 45 46 47 48 49 50
000
ASUS44 KJAN 010510
RWRMS

MISSISSIPPI HOURLY WEATHER ROUNDUP
NATIONAL WEATHER SERVICE JACKSON MS
1200 AM CDT FRI AUG 01 2014

NOTE: "FAIR: INDICATES FEW OR NO CLOUDS BELOW 12,000 FEET WITH NO
SIGNIFICANT WEATHER AND/OR OBSTRUCTIONS TO VISIBILITY.

MSZ001>002-007>008-010>013-018>021-025>028-034>036-010600-
NORTHWEST MISSISSIPPI

CITY           SKY/WX    TMP DP  RH WIND       PRES   REMARKS
CLARKSDALE     FAIR      68  68 100 N8        30.05F
CLEVELAND      FAIR      71  69  95 NE3       30.04S
GREENWOOD      PTCLDY    69  68  96 CALM      30.04R
GREENVILLE     MOCLDY    71  69  93 NE5       30.04R FOG
GRENADA        FAIR      70  66  88 CALM      30.05R
OLIVE BRANCH   PTCLDY    70  70 100 CALM      30.07R
OXFORD         FAIR      72  66  83 CALM      30.08R
TUNICA         CLOUDY    70  66  88 CALM      30.06S
$$

MSZ003>006-009-014>017-022>024-029>033-037>039-010600-
NORTHEAST MISSISSIPPI

CITY           SKY/WX    TMP DP  RH WIND       PRES   REMARKS
BELMONT        FAIR      66  65  96 CALM      30.06S
COLUMBUS AFB   NOT AVBL
CORINTH          N/A     68  64  88 CALM      30.06S
GOLDN TRIANGLE MOCLDY    68  63  83 CALM      30.05R
STARKVILLE     FAIR      68  64  88 CALM      30.04S
TUPELO         MOCLDY    71  66  84 CALM      30.05S
$$

MSZ040-058-010600-
CENTRAL MISSISSIPPI

CITY           SKY/WX    TMP DP  RH WIND       PRES   REMARKS
JACKSON INTL   CLOUDY    72  68  87 CALM      30.03R
JACKSON HAWKNS CLOUDY    73  65  75 CALM      30.04R
MERIDIAN KEY   MOCLDY    68  63  84 CALM      30.04R
MERIDIAN NAS   MOCLDY    66  62  87 CALM      30.04R
RAYMOND        FAIR      70  64  83 CALM      30.04R HAZE
VICKSBURG      CLOUDY    74  68  81 NE6       30.03R
$$

MSZ059>079-010600-
SOUTH MISSISSIPPI

CITY           SKY/WX    TMP DP  RH WIND       PRES   REMARKS
BROOKHAVEN     FAIR      70  68  94 CALM      30.05S
COLUMBIA       FAIR      70  68  94 CALM      30.02S
HATTIESBURG    PTCLDY    72  67  84 CALM      30.03S
MCCOMB         CLOUDY    73  64  73 NE3       30.03R
NATCHEZ        CLOUDY    73  64  73 E6        30.03R
PINE BELT      PTCLDY    70  64  83 CALM      30.05R
$$

MSZ080>082-010600-
COASTAL MISSISSIPPI

CITY           SKY/WX    TMP DP  RH WIND       PRES   REMARKS
BILOXI         NOT AVBL
PASCAGOULA     PTCLDY    68  67  96 CALM      30.01R
GULFPORT       PTCLDY    79  67  66 CALM      30.00S
$$


USA.gov is the U.S. government's official web portal to all federal, state and local government web resources and services.